Tracking 19717 objects as of 24-Jun-2019
HD Live streaming from Space Station
objects crossing your sky now

SL-8 R/B

Track SL-8 R/B now!
10-day predictions


NORAD ID: 4391
Int'l Code: 1970-036J
Perigee: 1,474.9 km
Apogee: 1,595.5 km
Inclination: 74.0 °
Period: 116.6 minutes
Semi major axis: 7906 km
RCS: 6.0858 m2 (large)
Launch date: April 25, 1970
Source: Commonwealth of Independent States (former USSR) (CIS)
Launch site: PLESETSK MISSILE AND SPACE COMPLEX (PKMTR)

Note: This is a ROCKET BODY
aabbcc
Your satellite tracking list
Your tracking list is empty




NASA's NSSDC Master Catalog

Two Line Element Set (TLE):
1  4391U 70036J   19175.46824676 -.00000059  00000-0 -34353-3 0  9996
2  4391  74.0280 318.3344 0076267 315.1297  99.8272 12.34957399216673
Source of the keplerian elements: AFSPC